Flag Weather past 2 weeks in Plano, Texas, U.S.A.

Now
50 °F

Sunny.


Feels Like: 46 °F
Forecast: 43 / 59 °F
Wind: 10 mph from Northwest

Location: McKinney Municipal Airport

Current Time: Nov 24, 2014 at 10:23:34 AM

Latest Report: Nov 24, 2014 at 9:53 AM


Visibility: 10 mi

Pressure: 30.09 "Hg

Humidity: 48%

Dew point: 31 °F

Location of PlanoLocation

Historic Weather in Plano — Graph

°F

Plano temperature yesterday

Maximum temperature yesterday: 75 °F (at 2:53 PM)
Minimum temperature yesterday: 49 °F (at 10:53 PM)
Average temperature yesterday: 61 °F

Past Weeks' High & Low Weather Summary

 TemperatureHumidityPressure
High78 °F (Nov 10, 1:53 PM)100% (Nov 15, 11:53 PM)30.66 "Hg (Nov 15, 11:53 PM)
Low20 °F (Nov 18, 4:53 AM)21% (Nov 18, 2:53 PM)29.38 "Hg (Nov 23, 2:53 PM)
Average46 °F64%30.15 "Hg
* Reported Nov 9 8:53 AM — Nov 24 8:53 AM, Plano, Weather by CustomWeather, © 2014

Note: Actual official high and low records may vary slightly from our data, if they occured in-between our weather recording intervals... More about our weather records

Advertising

Plano weather history for previous 24 hours

 ConditionsComfort  
Time TempWeatherWind HumidityBarometerVisibility
8:53 AM
Nov 24
48 °FSunny.13 mph54%30.04 "Hg10 mi
7:53 AM43 °FSunny.10 mph71%30.00 "Hg10 mi
6:53 AM42 °FClear.9 mph73%29.99 "Hg10 mi
5:53 AM43 °FClear.9 mph74%29.97 "Hg10 mi
4:53 AM44 °FClear.10 mph71%29.94 "Hg10 mi
3:53 AM44 °FClear.10 mph73%29.91 "Hg10 mi
2:53 AM45 °FClear.6 mph71%29.90 "Hg10 mi
1:53 AM46 °FClear.13 mph71%29.87 "Hg10 mi
12:53 AM47 °FClear.15 mph69%29.84 "Hg10 mi
11:53 PM
Nov 23
49 °FClear.15 mph61%29.81 "Hg10 mi
10:53 PM49 °FPassing clouds.20 mph69%29.81 "Hg10 mi
9:53 PM52 °FOvercast.23 mph61%29.75 "Hg10 mi
8:53 PM53 °FClear.23 mph61%29.70 "Hg10 mi
7:53 PM55 °FClear.17 mph62%29.65 "Hg10 mi
6:53 PM59 °FClear.24 mph58%29.60 "Hg10 mi
5:53 PM63 °FClear.28 mph52%29.53 "Hg10 mi
4:53 PM69 °FSunny.30 mph36%29.46 "Hg10 mi
3:53 PM75 °FSunny.22 mph23%29.40 "Hg10 mi
2:53 PM75 °FSunny.15 mph28%29.38 "Hg10 mi
1:53 PM73 °FSunny.21 mph36%29.38 "Hg10 mi
12:53 PM72 °FSunny.15 mph43%29.39 "Hg10 mi
11:53 AM69 °FSunny.20 mph51%29.42 "Hg10 mi
10:53 AM65 °FSunny.20 mph73%29.47 "Hg10 mi
Weather by CustomWeather, © 2014

See weather overviewHow to use our weather pages